GW2746 Weather Reports


Display with metric or nautical units.
time (UTC)temp
F
wind
direction
speed
MPH
gust
MPH
rain 1hr
in
rain 24hr
in
rain mn
in
humidity
%
barometer
mb
20260503032629 60 181 3.0 11.0 0.00 0.00 0.00 38 1014.3
20260503032152 60 187 2.0 9.0 0.00 0.00 0.00 38 1014.5
20260503031635 60 212 6.0 12.0 0.00 0.00 0.00 37 1014.6
20260503031117 60 214 5.0 13.0 0.00 0.00 0.00 37 1014.6
20260503030620 60 233 5.0 13.0 0.00 0.00 0.00 37 1014.6
20260503030120 60 208 3.0 10.0 0.00 0.00 0.00 37 1014.7
20260503025628 61 191 2.0 10.0 0.00 0.00 0.00 37 1014.8
20260503025130 61 170 3.0 6.0 0.00 0.00 0.00 36 1014.8
20260503024636 61 119 2.0 7.0 0.00 0.00 0.00 36 1014.8
20260503024117 61 187 2.0 6.0 0.00 0.00 0.00 37 1014.9
20260503023621 62 145 1.0 10.0 0.00 0.00 0.00 36 1014.9
20260503023118 62 148 5.0 10.0 0.00 0.00 0.00 35 1015.0
20260503022621 62 215 2.0 8.0 0.00 0.00 0.00 36 1014.9
20260503022122 61 190 3.0 6.0 0.00 0.00 0.00 36 1015.0
20260503021621 61 156 3.0 6.0 0.00 0.00 0.00 37 1015.1
20260503021120 61 202 2.0 5.0 0.00 0.00 0.00 37 1015.1
20260503020628 61 171 1.0 4.0 0.00 0.00 0.00 37 1015.2
20260503020130 62 155 0.0 4.0 0.00 0.00 0.00 37 1015.1
20260503015617 62 195 0.0 2.0 0.00 0.00 0.00 37 1015.2
20260503015118 62 219 0.0 2.0 0.00 0.00 0.00 37 1015.3
20260503014624 62 219 0.0 2.0 0.00 0.00 0.00 35 1015.4
20260503014122 63 176 0.0 2.0 0.00 0.00 0.00 35 1015.5
20260503013625 63 183 0.0 1.0 0.00 0.00 0.00 35 1015.5
20260503013123 64 183 0.0 1.0 0.00 0.00 0.00 34 1015.4
20260503012647 64 183 1.0 1.0 0.00 0.00 0.00 34 1015.4
20260503012125 64 183 1.0 3.0 0.00 0.00 0.00 33 1015.4
20260503011654 65 214 0.0 4.0 0.00 0.00 0.00 33 1015.5
20260503011129 65 231 1.0 5.0 0.00 0.00 0.00 32 1015.4
20260503010632 65 187 1.0 5.0 0.00 0.00 0.00 31 1015.5
20260503010132 66 211 1.0 8.0 0.00 0.00 0.00 31 1015.4
20260503005635 66 192 4.0 8.0 0.00 0.00 0.00 31 1015.4
20260503005154 66 225 2.0 5.0 0.00 0.00 0.00 31 1015.5
20260503004652 66 207 3.0 8.0 0.00 0.00 0.00 31 1015.4
20260503004128 66 153 3.0 8.0 0.00 0.00 0.00 30 1015.4
20260503003632 67 198 4.0 7.0 0.00 0.00 0.00 30 1015.6
20260503003150 67 242 4.0 8.0 0.00 0.00 0.00 30 1015.6
20260503002652 67 304 4.0 8.0 0.00 0.00 0.00 29 1015.6
20260503002127 67 235 1.0 8.0 0.00 0.00 0.00 29 1015.7
20260503001635 68 225 4.0 8.0 0.00 0.00 0.00 28 1015.7
20260503001135 68 200 3.0 5.0 0.00 0.00 0.00 29 1015.8
20260503000621 68 273 2.0 8.0 0.00 0.00 0.00 29 1015.8
20260503000127 68 219 3.0 10.0 0.00 0.00 0.00 29 1015.9
20260502235637 68 268 3.0 6.0 0.00 0.00 0.00 29 1016.0
20260502235117 68 277 2.0 5.0 0.00 0.00 0.00 29 1016.1
20260502234620 69 229 2.0 6.0 0.00 0.00 0.00 28 1016.2
20260502234117 68 337 2.0 11.0 0.00 0.00 0.00 29 1016.3
20260502233620 68 287 3.0 11.0 0.00 0.00 0.00 28 1015.4
20260502233122 68 264 3.0 10.0 0.00 0.00 0.00 29 1015.3
20260502232626 68 304 4.0 9.0 0.00 0.00 0.00 28 1015.5
20260502232124 68 254 4.0 9.0 0.00 0.00 0.00 28 1015.5
20260502231625 68 254 5.0 12.0 0.00 0.00 0.00 29 1015.6
20260502231144 68 251 5.0 12.0 0.00 0.00 0.00 28 1015.6
20260502230628 68 250 5.0 8.0 0.00 0.00 0.00 28 1015.6
20260502230127 69 208 6.0 8.0 0.00 0.00 0.00 27 1015.7
20260502225631 68 273 4.0 9.0 0.00 0.00 0.00 29 1015.8
20260502225128 68 289 5.0 9.0 0.00 0.00 0.00 28 1015.9
20260502224632 68 239 4.0 10.0 0.00 0.00 0.00 29 1015.9
20260502224132 68 274 2.0 12.0 0.00 0.00 0.00 29 1016.0
20260502223620 68 272 4.0 8.0 0.00 0.00 0.00 28 1016.1
20260502223121 68 173 5.0 8.0 0.00 0.00 0.00 30 1016.2
20260502222647 68 254 5.0 7.0 0.00 0.00 0.00 29 1016.2
20260502222122 68 263 3.0 8.0 0.00 0.00 0.00 30 1016.2
20260502221625 68 229 3.0 9.0 0.00 0.00 0.00 28 1016.4
20260502221123 68 276 2.0 9.0 0.00 0.00 0.00 28 1016.5
20260502220652 68 227 3.0 8.0 0.00 0.00 0.00 29 1016.6
20260502220131 68 289 4.0 10.0 0.00 0.00 0.00 30 1016.6
20260502215638 67 282 1.0 10.0 0.00 0.00 0.00 30 1016.7
20260502215119 67 237 5.0 10.0 0.00 0.00 0.00 31 1016.7
20260502214626 67 271 3.0 8.0 0.00 0.00 0.00 31 1016.8
20260502214123 67 187 3.0 8.0 0.00 0.00 0.00 30 1016.8
20260502213628 67 146 2.0 7.0 0.00 0.00 0.00 31 1016.9
20260502213150 67 171 5.0 8.0 0.00 0.00 0.00 30 1017.0
20260502212632 67 255 3.0 11.0 0.00 0.00 0.00 31 1017.1
20260502212131 66 254 3.0 13.0 0.00 0.00 0.00 32 1017.2
20260502211634 66 233 5.0 13.0 0.00 0.00 0.00 30 1017.3
20260502211137 67 261 4.0 8.0 0.00 0.00 0.00 30 1017.4
20260502210638 67 223 1.0 8.0 0.00 0.00 0.00 32 1017.4
20260502210151 66 261 4.0 11.0 0.00 0.00 0.00 31 1017.5
20260502205618 66 319 5.0 11.0 0.00 0.00 0.00 31 1017.7
20260502205137 67 194 4.0 8.0 0.00 0.00 0.00 31 1017.8
20260502204643 66 294 2.0 8.0 0.00 0.00 0.00 31 1017.8
20260502204121 66 183 3.0 7.0 0.00 0.00 0.00 32 1017.9
20260502203625 66 283 2.0 10.0 0.00 0.00 0.00 32 1018.0
20260502203129 66 289 3.0 10.0 0.00 0.00 0.00 31 1018.1
20260502202653 65 279 4.0 7.0 0.00 0.00 0.00 32 1018.2
20260502202154 65 129 4.0 9.0 0.00 0.00 0.00 32 1018.1
20260502201657 65 181 3.0 9.0 0.00 0.00 0.00 33 1018.3
20260502201136 65 250 4.0 9.0 0.00 0.00 0.00 31 1018.4
20260502200622 65 280 4.0 9.0 0.00 0.00 0.00 33 1018.5
20260502200141 65 249 4.0 9.0 0.00 0.00 0.00 33 1018.6
20260502195629 65 313 3.0 6.0 0.00 0.00 0.00 32 1018.6
20260502195134 64 310 2.0 8.0 0.00 0.00 0.00 32 1018.7
20260502194637 64 273 2.0 8.0 0.00 0.00 0.00 34 1018.9
20260502194116 64 38 3.0 8.0 0.00 0.00 0.00 34 1019.0
20260502193623 64 190 3.0 11.0 0.00 0.00 0.00 32 1019.1
20260502193121 63 248 4.0 11.0 0.00 0.00 0.00 33 1019.2
20260502192626 63 63 1.0 9.0 0.00 0.00 0.00 33 1019.3
20260502192124 63 359 3.0 8.0 0.00 0.00 0.00 35 1019.3
20260502191629 63 236 4.0 7.0 0.00 0.00 0.00 34 1019.5
20260502191128 63 314 5.0 8.0 0.00 0.00 0.00 36 1019.5
20260502190630 63 324 3.0 8.0 0.00 0.00 0.00 35 1019.6
20260502190133 63 339 3.0 8.0 0.00 0.00 0.00 35 1019.7
20260502185635 62 210 4.0 8.0 0.00 0.00 0.00 38 1019.7
20260502185134 62 237 4.0 8.0 0.00 0.00 0.00 36 1019.8
20260502184618 63 327 3.0 10.0 0.00 0.00 0.00 36 1020.0
20260502184139 62 334 2.0 10.0 0.00 0.00 0.00 37 1020.1
20260502183622 62 267 6.0 9.0 0.00 0.00 0.00 37 1020.2
20260502183119 61 19 2.0 9.0 0.00 0.00 0.00 38 1020.1
20260502182623 61 298 3.0 7.0 0.00 0.00 0.00 38 1020.3
20260502182122 61 285 4.0 7.0 0.00 0.00 0.00 36 1020.4
20260502181650 61 281 3.0 10.0 0.00 0.00 0.00 38 1020.3
20260502181124 61 260 6.0 10.0 0.00 0.00 0.00 38 1020.4
20260502180648 61 229 5.0 10.0 0.00 0.00 0.00 38 1020.4
20260502180127 60 38 4.0 7.0 0.00 0.00 0.00 39 1020.5
20260502170125 58 251 4.0 8.0 0.00 0.00 0.00 40 1021.2
20260502164128 57 323 4.0 7.0 0.00 0.00 0.00 40 1021.3
20260502163635 57 241 2.0 10.0 0.00 0.00 0.00 42 1021.4
20260502163132 57 268 3.0 10.0 0.00 0.00 0.00 41 1021.4
20260502162634 57 290 6.0 10.0 0.00 0.00 0.00 40 1021.4
20260502162130 57 266 3.0 9.0 0.00 0.00 0.00 40 1021.5
20260502161654 57 304 4.0 9.0 0.00 0.00 0.00 39 1021.6
20260502161133 57 295 4.0 7.0 0.00 0.00 0.00 41 1021.6
20260502160617 56 254 4.0 8.0 0.00 0.00 0.00 40 1021.6
20260502160120 56 291 4.0 8.0 0.00 0.00 0.00 41 1021.7
20260502152135 53 227 4.0 7.0 0.00 0.00 0.00 47 1021.9
20260502151618 53 210 1.0 7.0 0.00 0.00 0.00 49 1021.9
20260502151120 53 246 3.0 7.0 0.00 0.00 0.00 49 1021.9
20260502150626 52 296 4.0 6.0 0.00 0.00 0.00 48 1021.8
20260502150126 52 273 3.0 6.0 0.00 0.00 0.00 48 1021.9
20260502130621 40 1 1.0 2.0 0.00 0.00 0.00 73 1022.2
20260502130121 39 25 0.0 2.0 0.00 0.00 0.00 75 1022.1
20260502123626 35 25 0.0 0.0 0.00 0.00 0.00 84 1022.1
20260502123123 35 25 0.0 0.0 0.00 0.00 0.00 86 1022.1
20260502122626 34 25 0.0 0.0 0.00 0.00 0.00 87 1022.1
20260502122125 34 25 0.0 0.0 0.00 0.00 0.00 88 1022.0
20260502121627 33 25 0.0 0.0 0.00 0.00 0.00 88 1022.0
20260502121125 33 25 0.0 0.0 0.00 0.00 0.00 88 1022.0
20260502120634 33 25 0.0 0.0 0.00 0.00 0.00 89 1022.0
20260502120132 33 25 0.0 0.0 0.00 0.00 0.00 89 1022.0
20260502115636 33 25 0.0 0.0 0.00 0.00 0.00 88 1022.0
20260502115154 33 25 0.0 0.0 0.00 0.00 0.00 88 1021.9
20260502114620 33 25 0.0 0.0 0.00 0.00 0.00 88 1021.8
20260502114118 33 25 0.0 0.0 0.00 0.00 0.00 87 1021.9
20260502113624 33 25 0.0 0.0 0.00 0.00 0.00 87 1021.8
20260502113142 33 25 0.0 0.0 0.00 0.00 0.00 88 1021.9
20260502112625 33 25 0.0 0.0 0.00 0.00 0.00 87 1021.8
20260502112125 33 25 0.0 0.0 0.00 0.00 0.00 87 1021.8
20260502111629 33 25 0.0 0.0 0.00 0.00 0.00 86 1021.7
20260502111127 33 25 0.0 0.0 0.00 0.00 0.00 86 1021.7
20260502110633 33 25 0.0 0.0 0.00 0.00 0.00 86 1021.7
20260502110132 33 25 0.0 0.0 0.00 0.00 0.00 87 1021.7
20260502105619 33 25 0.0 0.0 0.00 0.00 0.00 86 1021.7
20260502105118 33 25 0.0 0.0 0.00 0.00 0.00 85 1021.7
20260502104642 33 25 0.0 0.0 0.00 0.00 0.00 85 1021.6
20260502104119 33 25 0.0 0.0 0.00 0.00 0.00 84 1021.6
20260502103643 33 25 0.0 0.0 0.00 0.00 0.00 84 1021.6
20260502103120 33 25 0.0 0.0 0.00 0.00 0.00 84 1021.6
20260502102625 33 25 0.0 0.0 0.00 0.00 0.00 83 1021.5
20260502102124 34 25 0.0 0.0 0.00 0.00 0.00 83 1021.6
20260502101627 34 25 0.0 0.0 0.00 0.00 0.00 83 1021.5
20260502101127 34 25 0.0 0.0 0.00 0.00 0.00 83 1021.4
20260502100634 34 25 0.0 0.0 0.00 0.00 0.00 82 1021.4
20260502100119 34 25 0.0 0.0 0.00 0.00 0.00 83 1021.4
20260502091122 36 25 0.0 1.0 0.00 0.00 0.00 79 1021.3
20260502090629 36 25 0.0 1.0 0.00 0.00 0.00 79 1021.2
20260502090148 36 25 0.0 0.0 0.00 0.00 0.00 79 1021.2
20260502071136 37 25 0.0 0.0 0.00 0.00 0.00 75 1021.2
20260502070640 37 25 0.0 0.0 0.00 0.00 0.00 75 1021.2
20260502070122 37 25 0.0 0.0 0.00 0.00 0.00 74 1021.2
20260502065629 37 25 0.0 0.0 0.00 0.00 0.00 74 1021.2
20260502065129 37 25 0.0 0.0 0.00 0.00 0.00 74 1021.2
20260502064630 38 25 0.0 0.0 0.00 0.00 0.00 74 1021.2
20260502064132 38 25 0.0 0.0 0.00 0.00 0.00 74 1021.3
20260502063635 38 25 0.0 0.0 0.00 0.00 0.00 73 1021.3
20260502063132 38 25 0.0 0.0 0.00 0.00 0.00 72 1021.3
20260502062658 38 25 0.0 0.0 0.00 0.00 0.00 72 1021.2
20260502062133 38 25 0.0 0.0 0.00 0.00 0.00 71 1021.2
20260502061636 39 25 0.0 0.0 0.00 0.00 0.00 70 1021.2
20260502061134 39 25 0.0 0.0 0.00 0.00 0.00 70 1021.2
20260502060617 39 25 0.0 0.0 0.00 0.00 0.00 69 1021.1
20260502060118 39 25 0.0 0.0 0.00 0.00 0.00 69 1021.1
20260502055621 39 25 0.0 0.0 0.00 0.00 0.00 69 1021.0
20260502055121 40 25 0.0 0.0 0.00 0.00 0.00 68 1021.0
20260502054625 40 25 0.0 0.0 0.00 0.00 0.00 68 1021.0
20260502054127 40 25 0.0 0.0 0.00 0.00 0.00 67 1020.9
20260502053634 41 25 0.0 0.0 0.00 0.00 0.00 65 1020.9
20260502053157 41 25 0.0 0.0 0.00 0.00 0.00 64 1020.9
20260502052638 42 25 0.0 0.0 0.00 0.00 0.00 63 1020.9
20260502052119 42 25 0.0 0.0 0.00 0.00 0.00 62 1020.9
20260502051622 42 25 0.0 0.0 0.00 0.00 0.00 61 1020.8
20260502051120 43 25 0.0 0.0 0.00 0.00 0.00 61 1020.9
20260502050625 43 25 0.0 0.0 0.00 0.00 0.00 60 1020.8
20260502050131 43 25 0.0 0.0 0.00 0.00 0.00 60 1020.8
20260502045628 43 25 0.0 0.0 0.00 0.00 0.00 59 1020.7
20260502045128 43 25 0.0 0.0 0.00 0.00 0.00 59 1020.7
20260502044631 43 25 0.0 0.0 0.00 0.00 0.00 59 1020.7
20260502044129 43 25 0.0 0.0 0.00 0.00 0.00 59 1020.6
20260502043632 44 25 0.0 0.0 0.00 0.00 0.00 58 1020.7
20260502043131 44 25 0.0 0.0 0.00 0.00 0.00 58 1020.6
20260502042636 44 25 0.0 0.0 0.00 0.00 0.00 58 1020.7
20260502042134 44 25 0.0 0.0 0.00 0.00 0.00 58 1020.7
20260502041618 44 25 0.0 0.0 0.00 0.00 0.00 57 1020.7
20260502041117 45 25 0.0 0.0 0.00 0.00 0.00 57 1020.6
20260502040624 45 25 0.0 0.0 0.00 0.00 0.00 56 1020.5
20260502040125 45 25 0.0 1.0 0.00 0.00 0.00 55 1020.6
20260502035648 45 25 0.0 1.0 0.00 0.00 0.00 54 1020.5
20260502035125 46 25 0.0 0.0 0.00 0.00 0.00 53 1020.5
20260502034630 46 25 0.0 0.0 0.00 0.00 0.00 53 1020.5
20260502034129 46 25 0.0 0.0 0.00 0.00 0.00 52 1020.6
20260502033619 46 25 0.0 0.0 0.00 0.00 0.00 51 1020.5
20260502033120 47 25 0.0 0.0 0.00 0.00 0.00 50 1020.5